Regional Weather Roundup
Issued by NWS

Home | Current Version | Previous Version | Text Only | Print | Product List | Glossary Off
Versions: 1 2 3 4 5 6 7 8 9 10 11 12 13 14 15 16 17 18 19 20 21 22 23 24 25 26 27 28 29 30 31 32 33 34 35 36 37 38 39 40 41 42 43 44 45 46 47 48 49 50

000
ASUS43 KFSD 281402
RWRSD

WEATHER ROUNDUP FOR SOUTH DAKOTA
NATIONAL WEATHER SERVICE SIOUX FALLS SD
900 AM CDT THU AUG 28 2014

NOTE: "FAIR" INDICATES FEW OR NO CLOUDS BELOW 12,000 FEET WITH NO
SIGNIFICANT WEATHER AND/OR OBSTRUCTIONS TO VISIBILITY.


SDZ001>005-009-010-012>017-281500-
NORTHWEST AND NORTH CENTRAL SOUTH DAKOTA

CITY           SKY/WX    TMP DP  RH WIND       PRES   REMARKS
BUFFALO          N/A     59  58  96 CALM      29.93S
FAITH            N/A     64  63  96 CALM      29.97S
MOBRIDGE       LGT RAIN  66  66 100 SE5       29.92F
$$

SDZ012>016-024>037-041>051-057-063-072>074-281500-
SOUTHWEST AND SOUTH CENTRAL SOUTH DAKOTA

CITY           SKY/WX    TMP DP  RH WIND       PRES   REMARKS
RAPID CTY ARPT CLOUDY    65  60  84 CALM      30.00R
PIERRE         LGT RAIN  67  67 100 NE8       29.91S FOG
CUSTER         CLOUDY    58  52  80 NW3       30.11R
ELLSWORTH AFB  CLOUDY    64  60  89 NW5       30.00R
PHILIP         CLOUDY    66  64  93 N3        29.95R
PINE RIDGE     CLOUDY    65  63  93 N7        29.99S
WINNER         CLOUDY    69  67  93 E5        29.91R
$$

SDZ004>011-016>023-039-040-281500-
NORTHEAST SOUTH DAKOTA

CITY           SKY/WX    TMP DP  RH WIND       PRES   REMARKS
ABERDEEN       CLOUDY    66  66 100 E5        29.95F
WATERTOWN      CLOUDY    66  64  93 SE9       29.97F
SISSETON         N/A     65  62  90 S6        29.98S
$$

SDZ017-020-022-023-036>040-048>070-281500-
SOUTHEAST SOUTH DAKOTA

CITY           SKY/WX    TMP DP  RH WIND       PRES   REMARKS
SIOUX FALLS    LGT RAIN  68  66  93 SE10      29.95F FOG
HURON          HVY RAIN  67  66  97 E8        29.93S VSB 1
CHAMBERLAIN    CLOUDY    67  66  99 E5        29.91R
MITCHELL       LGT RAIN  68  68 100 SE13      29.93S FOG
YANKTON        CLOUDY    68  66  94 SE10      29.92S
$$

ABBREVIATIONS USED IN REMARKS
   TC - TEMPERATURE IN CELSIUS
  WCI - WIND CHILL INDEX
   HX - HEAT INDEX
  VSB - VISIBILITY




USA.gov is the U.S. government's official web portal to all federal, state and local government web resources and services.